Lapse_Rate
0.6 0.4 0.4 0.0 -0.1 -0.3 -0.5 -0.7 -0.8 -1.0 -1.0 -1.0 -1.2 -1.3 -1.4 -1.3 -1.3 0.5 4.5 5.0 3.7 3.0 1.5 2.2 5.3 4.1 4.4 4.9 5.1 3.8 6.5 6.5 6.5 6.5 6.5 5.8 6.4 6.8 6.4 5.4 5.8 5.7 5.8 4.8 3.4
0.8 0.6 0.4 0.2 -0.0 -0.1 -0.2 -0.6 -0.9 -1.0 -0.8 -0.9 -1.2 -1.1 -1.2 -1.3 -0.8 5.1 6.6 5.8 3.9 2.1 4.0 3.3 4.1 3.4 3.5 5.2 4.3 5.8 6.5 6.5 6.5 6.5 6.5 6.2 5.7 6.2 6.0 6.0 6.1 5.6 4.9 4.8 3.5
1.0 0.6 0.5 0.3 0.1 -0.1 -0.2 -0.6 -0.8 -0.7 -0.6 -0.8 -1.0 -0.9 -0.9 -1.4 3.3 6.9 7.0 6.3 4.0 2.8 3.7 4.0 4.1 5.1 5.8 4.9 5.7 6.1 6.5 6.5 6.0 4.9 4.9 6.1 5.8 5.8 5.8 6.5 5.6 4.9 5.0 4.9 5.6
0.8 0.4 0.4 0.2 0.0 -0.1 -0.3 -0.5 -0.9 -0.6 -0.6 -0.6 -0.7 -0.7 -0.8 -0.6 6.5 6.9 7.6 6.7 5.4 4.7 5.4 5.3 5.4 5.8 6.4 6.5 5.6 6.5 5.8 5.9 5.6 5.1 5.3 6.5 5.8 6.0 6.0 5.9 5.4 4.9 4.8 4.2 4.4
0.6 0.4 0.3 0.1 -0.1 -0.4 -0.4 -0.2 -0.5 -0.6 -0.8 -0.5 -0.5 -0.7 -0.5 4.5 6.0 7.4 7.2 7.0 6.7 7.0 5.8 5.9 5.3 5.7 6.5 6.3 5.7 6.5 6.5 5.6 5.8 4.8 4.9 5.0 6.0 6.4 5.9 5.2 4.8 5.2 4.4 4.0 3.7
0.5 0.4 0.4 0.1 -0.3 -0.2 -0.4 -0.3 -0.4 -0.7 -0.7 -0.5 -0.2 -0.3 1.8 6.2 7.2 6.4 6.3 6.6 5.8 6.5 6.2 6.4 6.4 6.3 6.1 6.3 6.5 5.5 5.6 5.6 4.6 4.2 4.5 6.3 6.1 5.2 5.8 4.7 5.0 5.8 5.7 4.6 3.8
0.7 0.5 0.5 0.4 -0.1 -0.4 -0.7 -0.6 -0.6 -0.7 -0.7 -0.3 0.3 0.9 2.5 4.4 7.0 5.9 6.2 6.5 6.2 7.1 6.7 6.2 5.7 6.5 5.9 6.5 6.2 5.7 6.5 6.5 6.3 5.8 6.2 4.2 6.5 6.5 4.6 5.1 5.5 5.8 5.8 6.2 3.9
1.2 0.5 0.3 0.3 -0.1 -0.3 -1.0 -1.0 -1.0 -0.6 -0.2 0.2 1.2 1.9 3.8 7.7 6.7 7.1 6.4 6.1 6.6 6.3 6.3 5.8 5.9 5.8 6.2 6.0 5.4 6.5 6.5 6.5 6.5 6.2 5.8 5.4 6.5 6.5 5.5 5.3 6.2 6.5 6.7 6.4 6.5
1.3 1.0 0.5 0.6 -0.1 -0.4 -0.8 -1.1 -0.7 0.1 0.9 1.0 2.8 3.9 5.3 7.9 7.0 6.4 6.2 6.7 6.0 6.0 6.0 6.2 6.3 5.2 4.7 6.5 6.5 6.5 6.5 6.5 6.5 6.2 6.5 6.5 6.5 6.5 6.5 6.3 6.4 6.4 6.6 6.6 6.4
1.3 1.1 1.1 0.8 0.5 -0.3 -0.9 -0.6 0.4 1.5 2.3 3.4 4.8 5.3 6.0 7.0 6.8 6.6 6.7 7.1 6.3 5.4 4.9 4.2 2.8 6.5 6.5 6.5 6.5 6.5 6.5 6.5 6.5 6.5 6.5 6.5 6.5 6.5 6.4 6.1 6.3 6.4 6.5 6.7 6.7
2.7 1.7 1.8 2.0 1.7 0.6 -1.0 0.5 3.7 4.5 4.8 4.9 6.0 6.2 6.9 6.6 6.5 7.3 6.9 6.4 5.3 4.7 6.5 5.5 6.5 6.5 6.5 6.5 6.5 6.5 6.5 6.5 6.5 6.5 6.5 6.5 6.5 6.5 6.4 6.3 6.3 6.4 6.4 6.5 6.6
2.3 2.2 2.6 2.9 1.8 1.0 0.2 3.3 4.2 4.4 5.6 5.4 5.4 6.7 6.9 6.9 6.2 6.8 7.0 5.8 5.9 6.5 6.4 6.5 6.5 6.5 6.5 6.5 6.5 6.5 6.5 6.5 6.5 6.5 6.5 6.5 6.5 6.5 6.5 6.5 6.3 6.4 6.4 6.3 6.3
2.6 3.0 3.7 2.7 2.2 2.7 3.6 5.0 4.5 4.3 5.5 6.1 6.5 6.8 6.7 6.7 6.3 6.4 6.5 6.1 6.4 6.5 6.5 6.5 6.5 6.5 6.5 6.5 6.5 6.5 6.5 6.5 6.5 6.5 6.5 6.5 6.5 6.5 6.5 6.4 6.6 6.7 6.7 6.7 6.7
2.9 4.1 3.6 2.9 3.7 2.8 5.1 5.3 4.5 4.3 6.5 6.5 6.5 6.5 6.7 6.4 6.4 6.7 6.5 6.3 6.5 6.5 6.5 6.5 6.5 6.5 6.5 6.5 6.5 6.5 6.5 6.5 6.5 6.5 6.5 6.5 6.5 6.5 6.5 6.5 6.5 6.5 6.5 6.5 6.7
4.5 4.1 3.4 3.1 1.7 4.5 5.5 5.2 4.3 4.7 6.5 6.5 6.5 7.1 6.2 6.0 5.7 6.8 5.4 6.1 6.5 6.5 6.5 6.5 6.5 6.5 6.5 6.5 6.5 6.5 6.5 6.5 6.5 6.5 6.5 6.5 6.5 6.5 6.5 6.5 6.5 6.5 6.4 6.1 5.9
5.1 4.3 3.6 2.0 1.3 4.6 5.2 4.3 4.0 6.5 6.5 6.5 6.5 6.5 6.5 6.3 6.4 5.9 6.0 5.4 6.2 6.5 6.5 6.5 6.2 6.5 6.5 6.5 6.5 6.5 6.5 6.5 6.5 6.5 6.5 6.5 6.5 6.5 6.5 6.5 6.5 6.5 6.4 6.5 6.0
5.3 4.6 3.1 3.0 3.4 4.7 4.1 4.7 6.5 6.5 6.5 6.5 6.5 6.5 6.5 6.5 6.5 6.5 6.5 6.5 6.5 6.5 6.5 6.5 6.5 6.5 6.4 6.5 6.5 6.5 6.5 6.5 6.5 6.5 6.5 6.5 6.5 6.5 6.5 6.5 6.5 6.5 6.3 5.9 4.9
6.0 4.1 3.3 3.8 4.5 4.6 4.7 6.3 6.5 6.5 6.5 6.5 6.5 6.5 6.5 6.5 6.5 6.5 6.5 6.5 6.5 6.5 6.5 6.5 6.5 6.5 6.5 6.5 6.5 6.5 6.5 6.5 6.5 6.5 6.5 6.5 6.5 6.5 6.5 6.5 6.1 6.0 6.1 4.7 5.1
4.9 2.2 2.6 3.9 4.5 3.7 4.1 6.5 6.5 6.5 6.5 6.5 6.5 6.5 6.5 6.5 6.5 6.5 6.5 6.5 6.5 6.5 6.5 6.5 6.5 6.5 6.5 6.5 6.5 6.5 6.5 6.5 6.5 6.5 6.5 6.5 6.5 6.5 6.5 6.5 6.5 6.5 6.6 6.0 7.0
3.6 4.3 4.7 4.9 5.0 4.4 6.1 6.5 6.5 6.5 6.5 6.5 6.5 6.5 6.5 6.5 6.5 6.5 6.5 6.5 6.5 6.5 6.0 6.5 6.5 6.5 6.5 6.4 6.4 6.5 6.5 6.5 6.5 6.5 6.5 6.5 6.5 6.5 6.5 6.5 6.5 6.5 6.5 6.8 6.1
4.6 5.0 5.3 5.3 4.7 4.3 6.5 6.5 6.5 6.8 6.5 6.5 6.5 6.5 6.5 6.5 6.5 6.5 6.5 6.5 6.5 6.5 6.3 6.5 6.5 6.5 6.5 6.5 6.5 6.5 6.5 6.5 6.5 6.5 6.5 6.5 6.5 6.5 6.5 6.5 6.5 6.5 6.9 6.8 6.6
4.6 6.5 5.3 5.2 6.1 5.6 6.5 6.5 6.3 6.6 6.5 6.5 6.5 6.5 6.5 6.5 6.5 6.5 6.5 6.5 6.2 6.4 6.5 6.5 6.5 6.5 6.5 6.5 6.5 6.5 6.5 6.5 6.5 6.5 6.5 6.5 6.5 6.5 6.5 6.5 6.5 6.6 6.9 7.2 7.1
5.7 6.2 6.1 5.8 6.5 6.5 6.5 6.5 6.5 6.5 6.5 6.5 6.5 6.5 6.5 6.5 6.5 6.5 6.5 6.0 6.0 6.5 6.5 6.5 6.5 6.5 6.5 6.5 6.5 6.5 6.5 6.5 6.5 6.5 6.5 6.5 6.5 6.5 6.5 6.5 6.7 6.7 7.0 7.2 7.3
4.3 6.5 5.8 5.6 5.5 6.5 6.5 6.5 6.5 6.4 6.5 6.5 6.5 6.4 6.5 6.5 6.5 6.5 6.5 6.5 6.3 6.4 6.8 6.0 6.5 6.5 6.5 6.5 6.5 6.5 6.5 6.5 6.5 6.5 6.5 6.5 6.5 6.5 6.5 6.5 6.5 6.9 7.2 7.3 7.1
3.9 6.2 5.5 6.5 6.2 6.5 6.5 6.5 6.5 6.5 6.5 6.4 6.5 6.5 6.5 6.5 6.5 6.5 6.5 6.5 6.4 6.8 6.3 6.5 6.5 6.5 6.5 6.5 6.5 6.5 6.5 6.5 6.5 6.5 6.5 6.5 6.5 6.5 6.5 6.5 6.6 7.0 7.1 7.1 7.2
3.7 5.5 5.8 6.2 5.8 6.5 6.5 6.5 6.5 6.5 6.5 6.5 6.5 6.5 6.5 6.5 6.5 6.5 6.5 6.5 6.5 6.5 6.5 6.5 6.5 6.5 6.5 6.5 6.5 6.5 6.5 6.5 6.5 6.5 6.5 6.5 6.5 6.5 6.8 7.1 6.8 6.9 7.1 7.0 7.3
3.9 3.7 3.4 6.3 6.6 6.5 6.5 6.5 6.5 6.5 6.3 6.1 6.5 6.5 6.5 6.5 5.6 5.1 4.7 4.7 5.8 6.5 6.5 6.5 6.5 6.5 6.5 6.5 6.5 6.5 6.5 6.5 6.5 6.5 6.5 6.5 6.5 6.5 6.5 6.5 6.9 7.0 7.2 7.1 7.3
Wind_Speed
7 8 10 11 13 14 15 16 18 19 20 21 21 21 21 22 21 2 3 5 4 12 13 6 2 5 3 0 2 3 2 2 5 2 4 8 7 1 7 11 6 5 5 6 10
7 9 10 12 12 14 15 16 18 20 20 21 19 18 17 18 3 3 4 6 10 7 5 8 7 8 3 1 0 3 3 7 6 4 7 5 11 18 7 17 13 6 10 8 9
8 9 10 11 13 14 15 16 16 18 18 19 16 15 15 9 2 1 5 7 8 4 2 1 3 0 2 3 1 1 6 4 6 9 9 8 10 9 10 18 5 10 11 8 4
9 9 11 12 12 14 16 16 15 16 17 16 15 15 18 1 2 2 7 8 8 3 4 5 3 3 3 4 3 4 6 3 5 8 7 8 5 12 16 11 7 9 10 8 9
8 8 9 11 12 12 15 18 17 15 15 15 14 17 4 2 3 4 7 8 3 2 4 4 5 2 2 4 6 4 4 7 6 10 8 9 11 17 18 18 12 10 9 10 9
9 8 10 9 12 13 15 17 18 18 15 14 13 10 3 1 3 4 7 5 4 4 4 3 1 3 2 3 0 5 6 12 8 10 6 8 11 5 8 11 17 9 11 11 12
10 7 8 11 10 14 14 18 20 18 17 10 9 3 2 7 2 6 4 2 2 1 3 3 5 2 0 5 3 6 7 7 3 5 6 8 15 6 8 8 18 20 9 14 13
11 7 6 10 9 14 16 17 20 21 14 5 3 1 4 3 1 2 4 6 4 4 3 5 4 3 2 3 7 7 4 6 8 10 6 9 15 19 11 12 23 26 23 14 16
11 9 4 9 10 13 17 20 19 7 3 1 3 2 5 4 2 3 0 2 5 4 4 4 4 3 6 3 5 7 5 14 10 13 9 5 25 25 19 15 20 19 22 21 17
13 9 6 6 9 12 20 18 8 4 3 2 0 3 3 2 1 4 2 1 4 2 6 8 5 4 4 5 2 6 7 6 14 8 10 11 22 25 19 14 22 22 23 23 21
14 10 5 4 10 13 9 4 3 3 2 6 3 3 1 4 1 1 2 3 4 7 3 4 7 3 2 1 3 5 6 14 18 11 15 15 23 26 20 20 23 26 24 24 23
15 9 3 7 9 13 3 3 2 2 4 6 6 4 4 2 1 3 2 4 4 3 3 6 4 2 2 5 4 5 12 16 21 9 14 18 32 30 25 23 21 24 25 20 21
16 8 1 5 9 4 2 3 3 4 1 4 5 4 4 5 3 3 4 4 3 2 1 5 3 2 5 5 7 4 7 12 13 26 25 20 24 25 31 24 25 25 24 26 24
17 11 7 3 4 2 3 3 4 3 3 4 5 5 4 5 1 4 3 4 2 2 3 4 1 6 4 2 7 10 6 11 19 17 13 18 17 30 29 25 25 25 23 23 22
19 15 9 3 5 4 5 5 5 3 2 7 4 2 5 5 6 1 4 4 3 1 4 1 4 6 1 2 13 9 9 13 23 19 16 32 4 13 20 27 27 25 22 17 18
19 17 12 5 2 3 8 8 4 3 6 6 5 7 5 4 3 3 4 6 3 4 3 4 3 2 2 4 4 8 11 22 8 1 4 11 5 19 22 18 22 21 17 20 17
18 15 8 9 5 9 8 4 4 5 4 5 5 5 5 5 4 3 3 4 3 4 4 4 3 4 3 10 3 9 12 5 5 3 9 13 15 12 23 23 22 21 18 17 14
19 15 6 4 7 10 3 4 5 8 7 3 4 5 4 5 3 3 3 2 2 4 1 3 5 3 5 1 4 4 3 2 6 9 18 20 5 9 17 22 19 16 15 6 7
18 2 4 3 8 3 4 2 6 3 5 7 4 3 2 3 5 3 2 4 2 3 4 2 3 2 4 2 4 3 1 8 7 13 9 5 8 9 14 22 27 27 26 6 10
2 3 3 10 11 3 3 4 2 2 3 3 5 5 4 4 3 3 2 3 1 3 3 1 3 1 4 2 4 4 4 6 4 6 9 7 12 9 19 18 22 26 28 15 9
3 4 3 9 3 4 4 5 5 3 3 3 3 4 4 5 5 3 5 2 2 3 2 3 3 4 4 2 6 4 3 3 5 4 5 8 10 8 13 14 15 16 25 17 15
4 3 3 4 3 3 4 5 7 4 2 3 3 5 5 5 4 4 4 3 1 2 2 1 3 2 7 10 5 4 7 9 4 8 10 8 14 10 17 14 13 15 17 18 15
3 3 2 4 4 2 3 4 4 5 3 3 3 3 3 4 5 3 4 4 5 3 3 2 1 3 4 6 4 3 12 12 14 8 8 6 6 20 18 18 12 11 12 13 18
3 4 2 1 2 5 5 4 5 4 3 5 5 5 4 3 3 4 2 2 2 2 8 4 3 7 6 9 4 6 15 16 11 3 10 7 22 14 23 23 15 16 17 17 19
1 3 4 4 3 3 3 5 10 4 2 3 3 5 5 3 3 3 3 5 3 3 3 3 3 5 7 12 14 15 14 11 10 7 5 19 19 15 24 18 10 9 10 15 16
4 4 3 3 6 5 1 3 6 4 4 3 6 7 6 4 3 3 4 2 4 3 3 0 3 1 4 10 11 9 5 10 7 6 12 17 14 20 16 19 12 11 14 16 16
3 1 5 0 4 5 4 5 6 7 8 5 12 7 7 6 5 6 7 7 6 6 4 3 3 1 4 5 10 4 4 8 9 8 9 9 16 16 16 18 20 17 18 18 17
Wind_Direction
302 317 325 333 333 334 336 340 338 339 337 336 337 334 338 337 329 81 344 241 242 324 329 292 30 357 93 90 212 116 63 222 254 232 246 316 314 245 258 268 309 266 286 293 353
283 307 320 326 330 333 336 340 339 338 336 336 335 332 334 337 334 304 282 285 284 311 14 13 355 352 26 284 338 127 138 228 214 242 273 288 297 294 287 292 296 295 313 352 62
275 298 311 321 327 332 334 336 335 333 332 332 332 333 331 329 31 304 335 301 295 269 184 262 273 223 34 357 270 135 208 235 266 272 289 289 287 281 277 284 253 301 293 310 117
267 289 307 317 325 330 331 329 330 330 329 330 335 340 331 36 189 313 344 331 343 49 9 8 6 33 31 319 333 334 254 250 294 344 314 294 278 286 276 285 279 277 255 278 287
251 279 300 315 320 326 328 326 324 326 328 332 343 347 26 9 263 338 351 2 27 9 41 15 44 18 348 300 332 206 324 320 312 282 278 280 270 267 280 290 266 261 252 262 264
240 270 294 307 317 322 327 326 323 322 329 331 350 356 41 267 148 351 350 13 10 8 345 351 171 192 257 287 46 316 291 296 297 289 266 274 284 317 285 300 296 250 256 250 251
224 248 286 302 318 318 328 326 321 322 320 323 352 22 58 231 169 337 8 289 298 311 291 263 157 101 18 326 302 271 317 349 306 7 303 319 298 243 318 315 297 297 262 264 244
232 240 276 296 316 319 327 326 318 318 310 300 5 63 252 263 271 17 341 335 321 285 214 266 133 90 105 294 352 348 28 6 345 340 357 8 285 305 334 338 308 304 299 276 263
221 243 244 293 319 326 332 322 307 316 227 278 85 60 281 307 359 297 120 310 293 332 30 98 88 79 31 41 6 13 321 322 330 348 348 35 297 297 320 319 306 303 298 293 284
209 222 258 295 311 345 335 311 302 304 98 101 270 348 248 222 316 326 355 315 56 359 16 35 48 65 34 51 323 297 306 283 296 305 312 285 275 287 299 298 297 294 291 293 290
199 214 239 299 332 357 8 356 28 19 58 195 215 263 255 298 272 195 313 70 37 47 56 356 67 61 321 7 235 268 283 300 294 301 298 293 280 286 289 281 279 284 282 282 282
187 201 241 350 331 358 67 90 61 146 317 229 253 257 236 180 59 257 110 89 65 72 29 23 125 60 95 24 9 325 301 299 289 317 310 309 294 290 287 279 266 267 275 277 283
182 175 125 289 328 84 124 93 109 102 107 286 203 198 198 153 219 233 131 139 125 95 81 145 70 23 51 331 317 301 275 299 294 312 300 286 286 301 294 285 274 268 267 275 269
167 168 187 295 67 161 124 136 93 94 41 223 205 241 156 139 263 222 178 134 94 161 131 114 358 16 359 312 348 328 268 303 301 309 299 295 291 298 286 287 283 273 264 261 262
174 167 168 143 144 157 147 116 104 49 267 146 168 154 142 158 150 60 1 52 116 148 91 308 328 314 32 34 347 274 309 302 297 279 297 284 232 267 294 288 282 282 271 260 257
176 165 153 121 104 175 127 100 61 89 238 193 148 177 147 174 174 92 49 48 68 93 40 199 264 159 189 328 298 307 342 314 298 224 251 260 241 299 300 295 289 278 266 257 258
169 167 161 155 172 163 131 83 99 207 135 169 181 162 145 153 123 89 80 41 89 48 20 341 333 339 41 346 335 21 349 319 327 318 283 315 315 279 305 303 299 277 265 256 264
166 146 183 188 150 145 108 84 205 194 183 122 119 114 161 144 69 106 104 106 92 94 94 52 350 354 336 286 280 340 91 321 301 303 297 304 250 286 314 346 338 312 283 0 31
142 112 136 214 178 113 88 132 198 234 137 142 96 123 153 54 116 104 89 164 184 126 120 34 275 266 327 327 108 276 322 275 264 260 267 274 283 291 329 4 4 359 353 82 56
153 149 158 155 147 95 94 234 143 214 117 116 152 152 139 142 83 82 153 243 97 105 131 128 310 258 300 353 46 145 287 320 269 300 303 268 298 295 348 354 8 6 6 16 17
131 108 196 135 101 65 176 218 124 27 117 122 140 109 129 131 122 155 194 47 113 144 154 123 128 301 6 351 307 346 343 293 268 238 286 302 298 320 351 1 11 7 350 349 25
133 110 167 125 120 188 149 201 106 164 91 116 100 111 135 135 126 143 167 140 52 129 100 189 161 298 295 286 255 177 323 302 286 280 258 269 285 19 7 8 355 28 356 24 27
93 112 47 94 152 164 243 119 125 161 160 137 114 85 105 141 111 134 145 113 91 104 128 162 326 340 342 3 356 323 306 308 302 268 301 291 294 344 1 347 358 13 6 25 22
117 110 70 93 288 165 142 158 127 66 75 90 107 85 90 87 73 130 114 105 65 93 96 127 159 165 195 236 254 302 294 313 315 300 308 314 314 336 346 338 17 19 35 31 36
103 164 177 177 219 122 145 166 135 139 86 111 87 127 135 119 98 97 71 357 338 82 83 97 210 195 232 256 272 267 289 311 309 345 349 319 316 332 329 320 45 51 61 43 40
112 140 202 95 114 132 173 159 135 105 133 123 115 114 109 114 132 147 122 184 239 11 94 261 257 237 269 253 253 258 315 307 302 333 338 332 337 341 8 17 3 31 39 51 35
228 348 84 67 127 120 203 139 131 104 18 146 137 110 111 153 156 189 194 189 214 175 160 201 206 65 271 297 304 150 307 331 309 1 344 349 326 330 15 23 16 32 29 31 35